Time,TemperatureF,DewpointF,PressureIn,WindDirection,WindDirectionDegrees,WindSpeedMPH,WindSpeedGustMPH,Humidity,HourlyPrecipIn,Conditions,Clouds,dailyrainin,SoftwareType,DateUTC
2013-06-30 00:03:00,61.3,57.4,30.03,WNW,287,3.0,6.0,87,0.00,,,0.00,Wunderground v.1.15,2013-06-30 07:03:00,
2013-06-30 00:09:00,61.4,57.8,30.03,WNW,287,2.0,6.0,88,0.00,,,0.00,Wunderground v.1.15,2013-06-30 07:09:00,
2013-06-30 00:14:00,61.4,57.8,30.03,WNW,287,2.0,4.0,88,0.00,,,0.00,Wunderground v.1.15,2013-06-30 07:14:00,
2013-06-30 00:20:00,60.5,56.9,30.03,WNW,291,2.0,2.0,88,0.00,,,0.00,Wunderground v.1.15,2013-06-30 07:20:00,
2013-06-30 00:26:00,60.0,57.1,30.03,West,280,3.0,5.0,90,0.00,,,0.00,Wunderground v.1.15,2013-06-30 07:26:00,
2013-06-30 00:32:00,59.7,57.4,30.03,WNW,298,4.0,7.0,92,0.00,,,0.00,Wunderground v.1.15,2013-06-30 07:32:00,
2013-06-30 00:38:00,59.4,57.1,30.03,NW,317,5.0,7.0,92,0.00,,,0.00,Wunderground v.1.15,2013-06-30 07:38:00,
2013-06-30 00:43:00,59.0,57.0,30.03,WNW,291,5.0,8.0,93,0.00,,,0.00,Wunderground v.1.15,2013-06-30 07:43:00,
2013-06-30 00:49:00,58.6,56.9,30.03,WNW,286,6.0,8.0,94,0.00,,,0.00,Wunderground v.1.15,2013-06-30 07:49:00,
2013-06-30 00:55:00,58.5,56.8,30.03,WNW,284,4.0,6.0,94,0.00,,,0.00,Wunderground v.1.15,2013-06-30 07:55:00,
2013-06-30 01:00:00,58.5,57.1,30.03,WNW,290,2.0,2.0,95,0.00,,,0.00,Wunderground v.1.15,2013-06-30 08:00:00,
2013-06-30 01:05:00,58.4,57.0,30.03,WNW,292,1.0,5.0,95,0.00,,,0.00,Wunderground v.1.15,2013-06-30 08:05:00,
2013-06-30 01:11:00,58.3,56.9,30.03,WNW,296,2.0,4.0,95,0.00,,,0.00,Wunderground v.1.15,2013-06-30 08:11:00,
2013-06-30 01:16:00,58.0,56.6,30.03,WNW,298,3.0,5.0,95,0.00,,,0.00,Wunderground v.1.15,2013-06-30 08:16:00,
2013-06-30 01:22:00,58.0,56.9,30.02,WNW,298,3.0,3.0,96,0.00,,,0.00,Wunderground v.1.15,2013-06-30 08:22:00,
2013-06-30 01:27:00,58.0,56.9,30.02,WNW,298,2.0,3.0,96,0.00,,,0.00,Wunderground v.1.15,2013-06-30 08:27:00,
2013-06-30 01:33:00,57.9,56.8,30.02,WNW,301,2.0,5.0,96,0.00,,,0.00,Wunderground v.1.15,2013-06-30 08:33:00,
2013-06-30 01:39:00,57.9,56.8,30.02,WNW,296,2.0,5.0,96,0.00,,,0.00,Wunderground v.1.15,2013-06-30 08:39:00,
2013-06-30 01:44:00,57.7,56.6,30.02,WNW,290,3.0,5.0,96,0.00,,,0.00,Wunderground v.1.15,2013-06-30 08:44:00,
2013-06-30 01:49:00,57.6,56.5,30.02,WNW,296,3.0,5.0,96,0.00,,,0.00,Wunderground v.1.15,2013-06-30 08:49:00,
2013-06-30 01:55:00,57.6,56.5,30.02,WNW,294,3.0,3.0,96,0.00,,,0.00,Wunderground v.1.15,2013-06-30 08:55:00,
2013-06-30 02:00:00,57.5,56.7,30.02,WNW,294,2.0,3.0,97,0.00,,,0.00,Wunderground v.1.15,2013-06-30 09:00:00,
2013-06-30 02:05:00,57.5,56.7,30.02,WNW,294,2.0,7.0,97,0.00,,,0.00,Wunderground v.1.15,2013-06-30 09:05:00,
2013-06-30 02:11:00,57.5,56.7,30.02,WNW,294,1.0,2.0,97,0.00,,,0.00,Wunderground v.1.15,2013-06-30 09:11:00,
2013-06-30 02:16:00,57.6,56.8,30.02,WNW,294,1.0,3.0,97,0.00,,,0.00,Wunderground v.1.15,2013-06-30 09:16:00,
2013-06-30 02:22:00,57.6,56.8,30.02,WNW,294,1.0,2.0,97,0.00,,,0.00,Wunderground v.1.15,2013-06-30 09:22:00,
2013-06-30 02:28:00,57.6,56.8,30.02,WNW,294,1.0,2.0,97,0.00,,,0.00,Wunderground v.1.15,2013-06-30 09:28:00,
2013-06-30 02:33:00,57.5,56.7,30.02,WNW,294,1.0,2.0,97,0.00,,,0.00,Wunderground v.1.15,2013-06-30 09:33:00,
2013-06-30 02:39:00,57.6,56.8,30.02,WNW,294,0.0,2.0,97,0.00,,,0.00,Wunderground v.1.15,2013-06-30 09:39:00,
2013-06-30 02:45:00,57.6,56.8,30.02,WNW,294,0.0,1.0,97,0.00,,,0.00,Wunderground v.1.15,2013-06-30 09:45:00,
2013-06-30 02:51:00,57.5,56.7,30.02,WNW,294,1.0,2.0,97,0.00,,,0.00,Wunderground v.1.15,2013-06-30 09:51:00,
2013-06-30 02:57:00,57.3,56.5,30.02,WNW,294,1.0,2.0,97,0.00,,,0.00,Wunderground v.1.15,2013-06-30 09:57:00,
2013-06-30 03:03:00,57.3,56.5,30.02,WNW,294,1.0,5.0,97,0.00,,,0.00,Wunderground v.1.15,2013-06-30 10:03:00,
2013-06-30 03:09:00,57.2,56.4,30.02,WNW,294,1.0,5.0,97,0.00,,,0.00,Wunderground v.1.15,2013-06-30 10:09:00,
2013-06-30 03:15:00,57.0,56.2,30.02,WNW,294,1.0,2.0,97,0.00,,,0.00,Wunderground v.1.15,2013-06-30 10:15:00,
2013-06-30 03:20:00,57.1,56.3,30.02,WNW,294,1.0,2.0,97,0.00,,,0.00,Wunderground v.1.15,2013-06-30 10:20:00,
2013-06-30 03:26:00,57.0,56.2,30.02,NW,305,1.0,2.0,97,0.00,,,0.00,Wunderground v.1.15,2013-06-30 10:26:00,
2013-06-30 03:31:00,56.9,56.1,30.02,NW,309,2.0,4.0,97,0.00,,,0.00,Wunderground v.1.15,2013-06-30 10:31:00,
2013-06-30 03:36:00,56.7,55.9,30.02,WNW,302,3.0,4.0,97,0.00,,,0.00,Wunderground v.1.15,2013-06-30 10:36:00,
2013-06-30 03:42:00,56.5,55.7,30.02,WNW,298,3.0,4.0,97,0.00,,,0.00,Wunderground v.1.15,2013-06-30 10:42:00,
2013-06-30 03:47:00,56.2,55.4,30.02,WNW,298,3.0,4.0,97,0.00,,,0.00,Wunderground v.1.15,2013-06-30 10:47:00,
2013-06-30 03:53:00,56.2,55.4,30.02,WNW,292,3.0,5.0,97,0.00,,,0.00,Wunderground v.1.15,2013-06-30 10:53:00,
2013-06-30 03:59:00,56.2,55.4,30.02,WNW,294,3.0,5.0,97,0.00,,,0.00,Wunderground v.1.15,2013-06-30 10:59:00,
2013-06-30 04:05:00,56.2,55.4,30.02,WNW,290,3.0,4.0,97,0.00,,,0.00,Wunderground v.1.15,2013-06-30 11:05:00,
2013-06-30 04:11:00,56.2,55.4,30.02,WNW,290,2.0,2.0,97,0.00,,,0.00,Wunderground v.1.15,2013-06-30 11:11:00,
2013-06-30 04:16:00,56.1,55.5,30.02,WNW,290,0.0,2.0,98,0.00,,,0.00,Wunderground v.1.15,2013-06-30 11:16:00,
2013-06-30 04:22:00,56.1,55.5,30.01,WNW,290,0.0,0.0,98,0.00,,,0.00,Wunderground v.1.15,2013-06-30 11:22:00,
2013-06-30 04:27:00,56.1,55.5,30.01,WNW,290,0.0,0.0,98,0.00,,,0.00,Wunderground v.1.15,2013-06-30 11:27:00,
2013-06-30 04:33:00,56.1,55.5,30.01,WNW,290,0.0,0.0,98,0.00,,,0.00,Wunderground v.1.15,2013-06-30 11:33:00,
2013-06-30 04:39:00,56.0,55.4,30.01,WNW,290,0.0,0.0,98,0.00,,,0.00,Wunderground v.1.15,2013-06-30 11:39:00,
2013-06-30 04:45:00,55.8,55.2,30.01,WNW,290,0.0,0.0,98,0.00,,,0.00,Wunderground v.1.15,2013-06-30 11:45:00,
2013-06-30 04:50:00,55.7,55.1,30.01,WNW,290,0.0,0.0,98,0.00,,,0.00,Wunderground v.1.15,2013-06-30 11:50:00,
2013-06-30 04:56:00,55.8,55.2,30.02,WNW,290,0.0,1.0,98,0.00,,,0.00,Wunderground v.1.15,2013-06-30 11:56:00,
2013-06-30 05:02:00,55.9,55.3,30.02,WNW,290,0.0,6.0,98,0.00,,,0.00,Wunderground v.1.15,2013-06-30 12:02:00,
2013-06-30 05:07:00,55.9,55.3,30.02,WNW,290,0.0,6.0,98,0.00,,,0.00,Wunderground v.1.15,2013-06-30 12:07:00,
2013-06-30 05:13:00,56.0,55.4,30.02,WNW,286,0.0,2.0,98,0.00,,,0.00,Wunderground v.1.15,2013-06-30 12:13:00,
2013-06-30 05:19:00,56.1,55.5,30.01,WNW,286,1.0,2.0,98,0.00,,,0.00,Wunderground v.1.15,2013-06-30 12:19:00,
2013-06-30 05:25:00,56.1,55.5,30.02,WNW,286,0.0,1.0,98,0.00,,,0.00,Wunderground v.1.15,2013-06-30 12:25:00,
2013-06-30 05:31:00,56.1,55.5,30.02,WNW,286,0.0,1.0,98,0.00,,,0.00,Wunderground v.1.15,2013-06-30 12:31:00,
2013-06-30 05:36:00,56.1,55.5,30.02,WNW,285,0.0,2.0,98,0.00,,,0.00,Wunderground v.1.15,2013-06-30 12:36:00,
2013-06-30 05:42:00,56.2,55.6,30.02,WNW,284,1.0,1.0,98,0.00,,,0.00,Wunderground v.1.15,2013-06-30 12:42:00,
2013-06-30 05:48:00,56.4,55.8,30.01,WNW,286,0.0,1.0,98,0.00,,,0.00,Wunderground v.1.15,2013-06-30 12:48:00,
2013-06-30 05:53:00,56.4,55.8,30.01,WNW,286,0.0,2.0,98,0.00,,,0.00,Wunderground v.1.15,2013-06-30 12:53:00,
2013-06-30 05:59:00,56.4,55.8,30.01,WNW,286,1.0,2.0,98,0.00,,,0.00,Wunderground v.1.15,2013-06-30 12:59:00,
2013-06-30 06:05:00,56.7,56.1,30.02,WNW,285,1.0,2.0,98,0.00,,,0.00,Wunderground v.1.15,2013-06-30 13:05:00,
2013-06-30 06:11:00,57.1,56.5,30.02,WNW,286,1.0,1.0,98,0.00,,,0.00,Wunderground v.1.15,2013-06-30 13:11:00,
2013-06-30 06:16:00,57.5,56.9,30.02,WNW,285,1.0,3.0,98,0.00,,,0.00,Wunderground v.1.15,2013-06-30 13:16:00,
2013-06-30 06:22:00,58.4,57.8,30.01,WNW,285,2.0,3.0,98,0.00,,,0.00,Wunderground v.1.15,2013-06-30 13:22:00,
2013-06-30 06:27:00,58.6,58.0,30.01,WNW,284,2.0,3.0,98,0.00,,,0.00,Wunderground v.1.15,2013-06-30 13:27:00,
2013-06-30 06:33:00,58.9,58.3,30.01,WNW,284,1.0,1.0,98,0.00,,,0.00,Wunderground v.1.15,2013-06-30 13:33:00,
2013-06-30 06:39:00,59.3,58.7,30.01,WNW,285,0.0,1.0,98,0.00,,,0.00,Wunderground v.1.15,2013-06-30 13:39:00,
2013-06-30 06:44:00,59.7,59.1,30.01,WNW,285,0.0,0.0,98,0.00,,,0.00,Wunderground v.1.15,2013-06-30 13:44:00,
2013-06-30 06:50:00,59.3,58.7,30.01,WNW,285,0.0,0.0,98,0.00,,,0.00,Wunderground v.1.15,2013-06-30 13:50:00,
2013-06-30 06:55:00,58.1,57.5,30.02,WNW,284,0.0,1.0,98,0.00,,,0.00,Wunderground v.1.15,2013-06-30 13:55:00,
2013-06-30 07:00:00,57.8,57.2,30.02,WNW,285,0.0,0.0,98,0.00,,,0.00,Wunderground v.1.15,2013-06-30 14:00:00,
2013-06-30 07:05:00,58.0,57.4,30.02,WNW,284,0.0,3.0,98,0.00,,,0.00,Wunderground v.1.15,2013-06-30 14:05:00,
2013-06-30 07:11:00,58.2,57.6,30.02,WNW,284,0.0,1.0,98,0.00,,,0.00,Wunderground v.1.15,2013-06-30 14:11:00,
2013-06-30 07:17:00,58.5,57.9,30.02,WNW,285,0.0,1.0,98,0.00,,,0.00,Wunderground v.1.15,2013-06-30 14:17:00,
2013-06-30 07:22:00,58.7,58.1,30.02,WNW,285,0.0,0.0,98,0.00,,,0.00,Wunderground v.1.15,2013-06-30 14:22:00,
2013-06-30 07:28:00,59.1,58.5,30.02,WNW,284,0.0,0.0,98,0.00,,,0.00,Wunderground v.1.15,2013-06-30 14:28:00,
2013-06-30 07:33:00,59.4,58.8,30.02,WNW,284,0.0,0.0,98,0.00,,,0.00,Wunderground v.1.15,2013-06-30 14:33:00,
2013-06-30 07:39:00,59.8,59.2,30.02,WNW,285,0.0,0.0,98,0.00,,,0.00,Wunderground v.1.15,2013-06-30 14:39:00,
2013-06-30 07:45:00,59.3,58.7,30.02,WNW,284,0.0,2.0,98,0.00,,,0.00,Wunderground v.1.15,2013-06-30 14:45:00,
2013-06-30 07:51:00,58.9,58.3,30.02,WNW,284,0.0,0.0,98,0.00,,,0.00,Wunderground v.1.15,2013-06-30 14:51:00,
2013-06-30 07:57:00,58.4,57.8,30.02,WNW,284,0.0,2.0,98,0.00,,,0.00,Wunderground v.1.15,2013-06-30 14:57:00,
2013-06-30 08:02:00,57.9,57.3,30.02,WNW,285,0.0,2.0,98,0.00,,,0.00,Wunderground v.1.15,2013-06-30 15:02:00,
2013-06-30 08:07:00,57.8,57.2,30.02,WNW,285,0.0,2.0,98,0.00,,,0.00,Wunderground v.1.15,2013-06-30 15:07:00,
2013-06-30 08:13:00,57.8,57.2,30.02,WNW,285,0.0,0.0,98,0.00,,,0.00,Wunderground v.1.15,2013-06-30 15:13:00,
2013-06-30 08:19:00,57.8,57.2,30.02,WNW,284,0.0,1.0,98,0.00,,,0.00,Wunderground v.1.15,2013-06-30 15:19:00,
2013-06-30 08:25:00,58.4,57.8,30.02,WNW,284,0.0,3.0,98,0.00,,,0.00,Wunderground v.1.15,2013-06-30 15:25:00,
2013-06-30 08:31:00,58.1,57.5,30.02,NNW,333,1.0,1.0,98,0.00,,,0.00,Wunderground v.1.15,2013-06-30 15:31:00,
2013-06-30 08:37:00,58.8,58.2,30.02,NNW,333,0.0,1.0,98,0.00,,,0.00,Wunderground v.1.15,2013-06-30 15:37:00,
2013-06-30 08:43:00,59.3,58.7,30.02,NNW,333,0.0,0.0,98,0.00,,,0.00,Wunderground v.1.15,2013-06-30 15:43:00,
2013-06-30 08:49:00,59.2,58.6,30.02,NNW,333,0.0,0.0,98,0.00,,,0.00,Wunderground v.1.15,2013-06-30 15:49:00,
2013-06-30 08:54:00,59.4,58.8,30.02,NNW,333,0.0,2.0,98,0.00,,,0.00,Wunderground v.1.15,2013-06-30 15:54:00,
2013-06-30 09:00:00,59.6,59.0,30.02,NNW,333,0.0,0.0,98,0.00,,,0.00,Wunderground v.1.15,2013-06-30 16:00:00,
2013-06-30 09:05:00,59.5,58.9,30.02,NNW,333,1.0,2.0,98,0.00,,,0.00,Wunderground v.1.15,2013-06-30 16:05:00,
2013-06-30 09:11:00,59.5,58.6,30.02,NNW,333,1.0,1.0,97,0.00,,,0.00,Wunderground v.1.15,2013-06-30 16:11:00,
2013-06-30 09:17:00,60.0,59.1,30.01,NNW,333,0.0,1.0,97,0.00,,,0.00,Wunderground v.1.15,2013-06-30 16:17:00,
2013-06-30 09:22:00,59.8,58.9,30.01,NNW,333,0.0,0.0,97,0.00,,,0.00,Wunderground v.1.15,2013-06-30 16:22:00,
2013-06-30 09:28:00,59.5,58.6,30.01,NNW,333,0.0,3.0,97,0.00,,,0.00,Wunderground v.1.15,2013-06-30 16:28:00,
2013-06-30 09:33:00,59.6,58.7,30.01,NNW,333,1.0,1.0,97,0.00,,,0.00,Wunderground v.1.15,2013-06-30 16:33:00,
2013-06-30 09:39:00,59.4,58.5,30.01,NNW,332,1.0,2.0,97,0.00,,,0.00,Wunderground v.1.15,2013-06-30 16:39:00,
2013-06-30 09:45:00,59.5,58.4,30.01,NNW,336,2.0,3.0,96,0.00,,,0.00,Wunderground v.1.15,2013-06-30 16:45:00,
2013-06-30 09:50:00,59.5,58.4,30.01,NNW,337,2.0,2.0,96,0.00,,,0.00,Wunderground v.1.15,2013-06-30 16:50:00,
2013-06-30 09:56:00,59.6,58.2,30.01,NNW,342,2.0,3.0,95,0.00,,,0.00,Wunderground v.1.15,2013-06-30 16:56:00,
2013-06-30 10:01:00,60.3,59.2,30.01,NNW,345,2.0,3.0,96,0.00,,,0.00,Wunderground v.1.15,2013-06-30 17:01:00,
2013-06-30 10:07:00,60.8,59.4,30.01,North,350,1.0,3.0,95,0.00,,,0.00,Wunderground v.1.15,2013-06-30 17:07:00,
2013-06-30 10:12:00,61.2,59.8,30.01,North,350,1.0,3.0,95,0.00,,,0.00,Wunderground v.1.15,2013-06-30 17:12:00,
2013-06-30 10:18:00,61.4,59.7,30.01,North,355,1.0,3.0,94,0.00,,,0.00,Wunderground v.1.15,2013-06-30 17:18:00,
2013-06-30 10:19:00,61.4,59.7,30.01,North,355,1.0,3.0,94,0.00,,,0.00,Wunderground v.1.15,2013-06-30 17:19:00,
2013-06-30 10:24:00,61.7,60.0,30.00,North,355,1.0,1.0,94,0.00,,,0.00,Wunderground v.1.15,2013-06-30 17:24:00,
2013-06-30 10:29:00,62.0,60.0,30.00,North,10,1.0,2.0,93,0.00,,,0.00,Wunderground v.1.15,2013-06-30 17:29:00,
2013-06-30 10:35:00,63.7,61.6,30.00,ENE,57,1.0,1.0,93,0.00,,,0.00,Wunderground v.1.15,2013-06-30 17:35:00,
2013-06-30 10:40:00,66.0,63.3,30.00,ESE,114,1.0,1.0,91,0.00,,,0.00,Wunderground v.1.15,2013-06-30 17:40:00,
2013-06-30 10:46:00,67.7,62.7,30.00,ESE,117,2.0,4.0,84,0.00,,,0.00,Wunderground v.1.15,2013-06-30 17:46:00,
2013-06-30 10:52:00,68.6,62.9,30.00,East,98,2.0,2.0,82,0.00,,,0.00,Wunderground v.1.15,2013-06-30 17:52:00,
2013-06-30 10:58:00,70.5,64.0,30.00,East,101,1.0,2.0,80,0.00,,,0.00,Wunderground v.1.15,2013-06-30 17:58:00,
2013-06-30 11:03:00,71.1,63.9,30.00,NE,47,0.0,3.0,78,0.00,,,0.00,Wunderground v.1.15,2013-06-30 18:03:00,
2013-06-30 11:09:00,71.4,63.4,30.00,East,98,1.0,3.0,76,0.00,,,0.00,Wunderground v.1.15,2013-06-30 18:09:00,
2013-06-30 11:14:00,71.4,63.4,29.99,SE,125,1.0,4.0,76,0.00,,,0.00,Wunderground v.1.15,2013-06-30 18:14:00,
2013-06-30 11:19:00,71.2,63.2,29.99,SE,125,2.0,4.0,76,0.00,,,0.00,Wunderground v.1.15,2013-06-30 18:19:00,
2013-06-30 11:24:00,71.3,63.7,29.99,East,98,2.0,4.0,77,0.00,,,0.00,Wunderground v.1.15,2013-06-30 18:24:00,
2013-06-30 11:30:00,71.5,63.5,29.98,NE,44,1.0,1.0,76,0.00,,,0.00,Wunderground v.1.15,2013-06-30 18:30:00,
2013-06-30 11:36:00,71.6,63.6,29.98,NE,38,1.0,2.0,76,0.00,,,0.00,Wunderground v.1.15,2013-06-30 18:36:00,
2013-06-30 11:42:00,71.9,63.9,29.98,ENE,60,1.0,5.0,76,0.00,,,0.00,Wunderground v.1.15,2013-06-30 18:42:00,
2013-06-30 11:47:00,71.2,62.9,29.98,ENE,65,2.0,5.0,75,0.00,,,0.00,Wunderground v.1.15,2013-06-30 18:47:00,
2013-06-30 11:52:00,70.2,62.6,29.98,NE,51,2.0,4.0,77,0.00,,,0.00,Wunderground v.1.15,2013-06-30 18:52:00,
2013-06-30 11:58:00,69.1,62.3,29.98,NE,51,2.0,4.0,79,0.00,,,0.00,Wunderground v.1.15,2013-06-30 18:58:00,
2013-06-30 12:03:00,68.6,62.2,29.97,NE,51,2.0,4.0,80,0.00,,,0.00,Wunderground v.1.15,2013-06-30 19:03:00,
2013-06-30 12:09:00,68.7,62.3,29.97,NE,51,2.0,4.0,80,0.00,,,0.00,Wunderground v.1.15,2013-06-30 19:09:00,
2013-06-30 12:15:00,68.6,62.2,29.97,NE,48,2.0,3.0,80,0.00,,,0.00,Wunderground v.1.15,2013-06-30 19:15:00,
2013-06-30 12:21:00,68.7,62.3,29.97,NE,48,3.0,3.0,80,0.00,,,0.00,Wunderground v.1.15,2013-06-30 19:21:00,
2013-06-30 12:26:00,68.7,62.6,29.97,NE,48,3.0,3.0,81,0.00,,,0.00,Wunderground v.1.15,2013-06-30 19:26:00,
2013-06-30 12:32:00,69.6,63.2,29.97,SE,133,2.0,3.0,80,0.00,,,0.00,Wunderground v.1.15,2013-06-30 19:32:00,
2013-06-30 12:38:00,71.7,64.5,29.97,ESE,107,1.0,3.0,78,0.00,,,0.00,Wunderground v.1.15,2013-06-30 19:38:00,
2013-06-30 12:43:00,72.7,64.3,29.96,ESE,115,1.0,2.0,75,0.00,,,0.00,Wunderground v.1.15,2013-06-30 19:43:00,
2013-06-30 12:49:00,72.6,63.4,29.96,East,96,2.0,5.0,73,0.00,,,0.00,Wunderground v.1.15,2013-06-30 19:49:00,
2013-06-30 12:55:00,72.1,63.4,29.96,ESE,117,3.0,4.0,74,0.00,,,0.00,Wunderground v.1.15,2013-06-30 19:55:00,
2013-06-30 13:01:00,71.9,63.5,29.96,East,86,2.0,4.0,75,0.00,,,0.00,Wunderground v.1.15,2013-06-30 20:01:00,
2013-06-30 13:06:00,72.0,63.3,29.96,East,97,2.0,4.0,74,0.00,,,0.00,Wunderground v.1.15,2013-06-30 20:06:00,
2013-06-30 13:11:00,72.5,63.7,29.96,ESE,107,2.0,5.0,74,0.00,,,0.00,Wunderground v.1.15,2013-06-30 20:11:00,
2013-06-30 13:16:00,73.0,63.8,29.96,ESE,113,2.0,5.0,73,0.00,,,0.00,Wunderground v.1.15,2013-06-30 20:16:00,
2013-06-30 13:21:00,72.3,62.8,29.96,ESE,102,3.0,4.0,72,0.00,,,0.00,Wunderground v.1.15,2013-06-30 20:21:00,
2013-06-30 13:27:00,72.8,63.6,29.96,ESE,121,3.0,4.0,73,0.00,,,0.00,Wunderground v.1.15,2013-06-30 20:27:00,
2013-06-30 13:32:00,73.8,63.8,29.95,ESE,105,2.0,2.0,71,0.00,,,0.00,Wunderground v.1.15,2013-06-30 20:32:00,
2013-06-30 13:38:00,75.5,65.0,29.95,SE,134,1.0,4.0,70,0.00,,,0.00,Wunderground v.1.15,2013-06-30 20:38:00,
2013-06-30 13:43:00,76.2,64.9,29.95,SSE,148,1.0,5.0,68,0.00,,,0.00,Wunderground v.1.15,2013-06-30 20:43:00,
2013-06-30 13:49:00,76.6,64.0,29.95,SE,125,2.0,5.0,65,0.00,,,0.00,Wunderground v.1.15,2013-06-30 20:49:00,
2013-06-30 13:54:00,75.8,64.1,29.95,SE,129,2.0,4.0,67,0.00,,,0.00,Wunderground v.1.15,2013-06-30 20:54:00,
2013-06-30 14:00:00,76.8,63.2,29.95,ESE,121,2.0,2.0,63,0.00,,,0.00,Wunderground v.1.15,2013-06-30 21:00:00,
2013-06-30 14:05:00,78.0,63.9,29.95,SE,140,1.0,7.0,62,0.00,,,0.00,Wunderground v.1.15,2013-06-30 21:05:00,
2013-06-30 14:11:00,75.6,63.0,29.95,WNW,295,1.0,3.0,65,0.00,,,0.00,Wunderground v.1.15,2013-06-30 21:11:00,
2013-06-30 14:17:00,73.5,63.5,29.95,NW,309,2.0,3.0,71,0.00,,,0.00,Wunderground v.1.15,2013-06-30 21:17:00,
2013-06-30 14:23:00,72.9,63.3,29.95,NW,309,1.0,2.0,72,0.00,,,0.00,Wunderground v.1.15,2013-06-30 21:23:00,
2013-06-30 14:29:00,74.7,64.3,29.95,NE,49,1.0,3.0,70,0.00,,,0.00,Wunderground v.1.15,2013-06-30 21:29:00,
2013-06-30 14:34:00,76.9,64.2,29.94,NE,52,1.0,3.0,65,0.00,,,0.00,Wunderground v.1.15,2013-06-30 21:34:00,
2013-06-30 14:39:00,78.3,64.2,29.94,NE,52,1.0,3.0,62,0.00,,,0.00,Wunderground v.1.15,2013-06-30 21:39:00,
2013-06-30 14:45:00,80.1,65.4,29.94,ESE,118,1.0,2.0,61,0.00,,,0.00,Wunderground v.1.15,2013-06-30 21:45:00,
2013-06-30 14:51:00,80.3,64.2,29.94,ENE,62,1.0,3.0,58,0.00,,,0.00,Wunderground v.1.15,2013-06-30 21:51:00,
2013-06-30 14:57:00,78.4,63.8,29.94,NE,50,2.0,3.0,61,0.00,,,0.00,Wunderground v.1.15,2013-06-30 21:57:00,
2013-06-30 15:02:00,78.7,64.6,29.94,NE,42,2.0,6.0,62,0.00,,,0.00,Wunderground v.1.15,2013-06-30 22:02:00,
2013-06-30 15:08:00,78.1,64.5,29.93,NE,34,1.0,6.0,63,0.00,,,0.00,Wunderground v.1.15,2013-06-30 22:08:00,
2013-06-30 15:13:00,76.7,63.6,29.94,WNW,286,2.0,12.0,64,0.00,,,0.00,Wunderground v.1.15,2013-06-30 22:13:00,
2013-06-30 15:19:00,68.1,59.9,29.94,West,274,8.0,12.0,75,0.00,,,0.00,Wunderground v.1.15,2013-06-30 22:19:00,
2013-06-30 15:25:00,65.0,59.7,29.94,WNW,284,9.0,11.0,83,0.00,,,0.00,Wunderground v.1.15,2013-06-30 22:25:00,
2013-06-30 15:30:00,64.3,59.7,29.94,WNW,296,7.0,7.0,85,0.00,,,0.00,Wunderground v.1.15,2013-06-30 22:30:00,
2013-06-30 15:35:00,64.3,60.0,29.94,WNW,293,7.0,9.0,86,0.00,,,0.00,Wunderground v.1.15,2013-06-30 22:35:00,
2013-06-30 15:41:00,64.0,59.7,29.94,WNW,298,7.0,7.0,86,0.00,,,0.00,Wunderground v.1.15,2013-06-30 22:41:00,
2013-06-30 15:47:00,63.9,60.0,29.93,WNW,286,7.0,9.0,87,0.00,,,0.00,Wunderground v.1.15,2013-06-30 22:47:00,
2013-06-30 15:53:00,63.8,59.9,29.94,WNW,295,7.0,10.0,87,0.00,,,0.00,Wunderground v.1.15,2013-06-30 22:53:00,
2013-06-30 15:59:00,64.1,60.2,29.93,WNW,292,8.0,10.0,87,0.00,,,0.00,Wunderground v.1.15,2013-06-30 22:59:00,
2013-06-30 16:04:00,64.1,60.2,29.93,WNW,290,8.0,9.0,87,0.00,,,0.00,Wunderground v.1.15,2013-06-30 23:04:00,
2013-06-30 16:10:00,64.3,60.7,29.93,WNW,282,9.0,9.0,88,0.00,,,0.00,Wunderground v.1.15,2013-06-30 23:10:00,
2013-06-30 16:16:00,64.9,60.9,29.93,West,280,8.0,10.0,87,0.00,,,0.00,Wunderground v.1.15,2013-06-30 23:16:00,
2013-06-30 16:22:00,64.6,60.3,29.93,WNW,289,9.0,12.0,86,0.00,,,0.00,Wunderground v.1.15,2013-06-30 23:22:00,
2013-06-30 16:28:00,63.9,60.0,29.93,WNW,295,9.0,12.0,87,0.00,,,0.00,Wunderground v.1.15,2013-06-30 23:28:00,
2013-06-30 16:33:00,63.8,59.9,29.93,NW,319,10.0,14.0,87,0.00,,,0.00,Wunderground v.1.15,2013-06-30 23:33:00,
2013-06-30 16:39:00,63.8,59.9,29.93,WNW,296,11.0,14.0,87,0.00,,,0.00,Wunderground v.1.15,2013-06-30 23:39:00,
2013-06-30 16:44:00,64.1,60.2,29.93,WNW,284,11.0,13.0,87,0.00,,,0.00,Wunderground v.1.15,2013-06-30 23:44:00,
2013-06-30 16:49:00,64.3,59.7,29.93,NW,310,11.0,16.0,85,0.00,,,0.00,Wunderground v.1.15,2013-06-30 23:49:00,
2013-06-30 16:55:00,63.8,59.9,29.93,WNW,294,12.0,14.0,87,0.00,,,0.00,Wunderground v.1.15,2013-06-30 23:55:00,
2013-06-30 17:01:00,63.9,60.3,29.93,WNW,292,12.0,12.0,88,0.00,,,0.00,Wunderground v.1.15,2013-07-01 00:01:00,
2013-06-30 17:06:00,64.0,60.4,29.92,West,280,12.0,13.0,88,0.00,,,0.00,Wunderground v.1.15,2013-07-01 00:06:00,
2013-06-30 17:12:00,64.2,60.2,29.92,NW,304,12.0,15.0,87,0.00,,,0.00,Wunderground v.1.15,2013-07-01 00:12:00,
2013-06-30 17:17:00,64.2,60.6,29.92,WNW,301,12.0,15.0,88,0.00,,,0.00,Wunderground v.1.15,2013-07-01 00:17:00,
2013-06-30 17:22:00,64.3,60.7,29.93,WNW,286,12.0,14.0,88,0.00,,,0.00,Wunderground v.1.15,2013-07-01 00:22:00,
2013-06-30 17:27:00,64.6,61.0,29.92,WNW,292,12.0,14.0,88,0.00,,,0.00,Wunderground v.1.15,2013-07-01 00:27:00,
2013-06-30 17:33:00,64.7,60.7,29.92,West,281,12.0,15.0,87,0.00,,,0.00,Wunderground v.1.15,2013-07-01 00:33:00,
2013-06-30 17:39:00,64.6,60.6,29.92,WNW,288,12.0,16.0,87,0.00,,,0.00,Wunderground v.1.15,2013-07-01 00:39:00,
2013-06-30 17:44:00,64.6,60.6,29.92,WNW,282,13.0,15.0,87,0.00,,,0.00,Wunderground v.1.15,2013-07-01 00:44:00,
2013-06-30 17:50:00,64.5,60.2,29.92,WNW,288,13.0,13.0,86,0.00,,,0.00,Wunderground v.1.15,2013-07-01 00:50:00,
2013-06-30 17:55:00,64.5,60.2,29.92,WNW,284,13.0,16.0,86,0.00,,,0.00,Wunderground v.1.15,2013-07-01 00:55:00,
2013-06-30 18:00:00,64.2,60.2,29.92,NW,309,12.0,13.0,87,0.00,,,0.00,Wunderground v.1.15,2013-07-01 01:00:00,
2013-06-30 18:05:00,64.6,60.6,29.92,NW,323,12.0,17.0,87,0.00,,,0.00,Wunderground v.1.15,2013-07-01 01:05:00,
2013-06-30 18:11:00,64.5,60.2,29.91,WNW,286,12.0,15.0,86,0.00,,,0.00,Wunderground v.1.15,2013-07-01 01:11:00,
2013-06-30 18:17:00,64.8,60.2,29.91,WNW,284,13.0,16.0,85,0.00,,,0.00,Wunderground v.1.15,2013-07-01 01:17:00,
2013-06-30 18:23:00,64.6,59.7,29.91,WNW,302,14.0,16.0,84,0.00,,,0.00,Wunderground v.1.15,2013-07-01 01:23:00,
2013-06-30 18:29:00,64.8,59.2,29.91,West,272,14.0,18.0,82,0.00,,,0.00,Wunderground v.1.15,2013-07-01 01:29:00,
2013-06-30 18:34:00,64.7,59.4,29.91,WNW,284,15.0,18.0,83,0.00,,,0.00,Wunderground v.1.15,2013-07-01 01:34:00,
2013-06-30 18:39:00,64.7,58.7,29.91,NW,304,17.0,19.0,81,0.00,,,0.00,Wunderground v.1.15,2013-07-01 01:39:00,
2013-06-30 18:44:00,64.5,59.2,29.91,WNW,285,16.0,17.0,83,0.00,,,0.00,Wunderground v.1.15,2013-07-01 01:44:00,
2013-06-30 18:49:00,65.0,59.0,29.91,WNW,299,14.0,17.0,81,0.00,,,0.00,Wunderground v.1.15,2013-07-01 01:49:00,
2013-06-30 18:54:00,65.0,59.0,29.91,WNW,303,13.0,16.0,81,0.00,,,0.00,Wunderground v.1.15,2013-07-01 01:54:00,
2013-06-30 18:59:00,65.4,59.4,29.91,WNW,303,12.0,17.0,81,0.00,,,0.00,Wunderground v.1.15,2013-07-01 01:59:00,
2013-06-30 19:05:00,65.0,59.0,29.91,WNW,286,12.0,17.0,81,0.00,,,0.00,Wunderground v.1.15,2013-07-01 02:05:00,
2013-06-30 19:06:00,65.0,58.7,29.91,WNW,291,12.0,17.0,80,0.00,,,0.00,Wunderground v.1.15,2013-07-01 02:06:00,
2013-06-30 19:11:00,64.7,58.7,29.91,NW,306,13.0,13.0,81,0.00,,,0.00,Wunderground v.1.15,2013-07-01 02:11:00,
2013-06-30 19:16:00,65.0,58.7,29.91,West,280,13.0,15.0,80,0.00,,,0.00,Wunderground v.1.15,2013-07-01 02:16:00,
2013-06-30 19:22:00,65.1,58.1,29.91,WNW,282,13.0,13.0,78,0.00,,,0.00,Wunderground v.1.15,2013-07-01 02:22:00,
2013-06-30 19:27:00,65.8,58.7,29.91,NW,324,13.0,13.0,78,0.00,,,0.00,Wunderground v.1.15,2013-07-01 02:27:00,
2013-06-30 19:33:00,66.1,58.7,29.91,WNW,300,12.0,13.0,77,0.00,,,0.00,Wunderground v.1.15,2013-07-01 02:33:00,
2013-06-30 19:39:00,67.4,58.1,29.91,WNW,291,12.0,14.0,72,0.00,,,0.00,Wunderground v.1.15,2013-07-01 02:39:00,
2013-06-30 19:45:00,67.2,57.9,29.91,WNW,299,12.0,13.0,72,0.00,,,0.00,Wunderground v.1.15,2013-07-01 02:45:00,
2013-06-30 19:50:00,67.0,58.1,29.91,West,267,11.0,11.0,73,0.00,,,0.00,Wunderground v.1.15,2013-07-01 02:50:00,
2013-06-30 19:56:00,67.9,58.5,29.91,WNW,291,10.0,16.0,72,0.00,,,0.00,Wunderground v.1.15,2013-07-01 02:56:00,
2013-06-30 20:02:00,68.6,58.8,29.91,NW,304,8.0,18.0,71,0.00,,,0.00,Wunderground v.1.15,2013-07-01 03:02:00,
2013-06-30 20:07:00,68.8,58.2,29.91,WNW,296,7.0,18.0,69,0.00,,,0.00,Wunderground v.1.15,2013-07-01 03:07:00,
2013-06-30 20:13:00,67.9,58.1,29.91,West,278,7.0,9.0,71,0.00,,,0.00,Wunderground v.1.15,2013-07-01 03:13:00,
2013-06-30 20:19:00,68.0,58.6,29.91,WNW,290,5.0,9.0,72,0.00,,,0.00,Wunderground v.1.15,2013-07-01 03:19:00,
2013-06-30 20:25:00,68.2,58.0,29.91,WNW,288,6.0,12.0,70,0.00,,,0.00,Wunderground v.1.15,2013-07-01 03:25:00,
2013-06-30 20:30:00,67.6,58.6,29.91,WSW,240,7.0,7.0,73,0.00,,,0.00,Wunderground v.1.15,2013-07-01 03:30:00,
2013-06-30 20:35:00,67.3,58.7,29.91,WSW,250,6.0,10.0,74,0.00,,,0.00,Wunderground v.1.15,2013-07-01 03:35:00,
2013-06-30 20:41:00,67.6,59.0,29.91,WNW,290,4.0,10.0,74,0.00,,,0.00,Wunderground v.1.15,2013-07-01 03:41:00,
2013-06-30 20:46:00,68.6,59.6,29.91,West,271,3.0,10.0,73,0.00,,,0.00,Wunderground v.1.15,2013-07-01 03:46:00,
2013-06-30 20:52:00,68.9,59.5,29.91,West,263,3.0,5.0,72,0.00,,,0.00,Wunderground v.1.15,2013-07-01 03:52:00,
2013-06-30 20:57:00,69.2,59.4,29.91,West,281,3.0,5.0,71,0.00,,,0.00,Wunderground v.1.15,2013-07-01 03:57:00,
2013-06-30 21:01:00,69.3,59.5,29.91,West,276,4.0,4.0,71,0.00,,,0.00,Wunderground v.1.15,2013-07-01 04:01:00,
2013-06-30 21:02:00,69.3,59.9,29.91,WSW,244,4.0,5.0,72,0.00,,,0.00,Wunderground v.1.15,2013-07-01 04:02:00,
2013-06-30 21:03:00,69.2,59.8,29.91,WSW,247,3.0,16.0,72,0.00,,,0.00,Wunderground v.1.15,2013-07-01 04:03:00,
2013-06-30 21:04:00,69.2,59.8,29.91,WSW,247,3.0,16.0,72,0.00,,,0.00,Wunderground v.1.15,2013-07-01 04:04:00,
2013-06-30 21:10:00,69.0,59.6,29.91,WSW,245,3.0,3.0,72,0.00,,,0.00,Wunderground v.1.15,2013-07-01 04:10:00,
2013-06-30 21:15:00,68.8,59.8,29.91,WSW,252,3.0,4.0,73,0.00,,,0.00,Wunderground v.1.15,2013-07-01 04:15:00,
2013-06-30 21:21:00,68.5,59.9,29.91,WSW,257,4.0,4.0,74,0.00,,,0.00,Wunderground v.1.15,2013-07-01 04:21:00,
2013-06-30 21:26:00,68.5,60.3,29.91,West,275,4.0,4.0,75,0.00,,,0.00,Wunderground v.1.15,2013-07-01 04:26:00,
2013-06-30 21:32:00,68.3,60.4,29.91,West,269,3.0,9.0,76,0.00,,,0.00,Wunderground v.1.15,2013-07-01 04:32:00,
2013-06-30 21:37:00,68.4,60.5,29.91,WSW,248,4.0,9.0,76,0.00,,,0.00,Wunderground v.1.15,2013-07-01 04:37:00,
2013-06-30 21:43:00,68.3,60.4,29.91,SSW,194,4.0,5.0,76,0.00,,,0.00,Wunderground v.1.15,2013-07-01 04:43:00,
2013-06-30 21:49:00,68.1,60.6,29.91,WNW,282,4.0,5.0,77,0.00,,,0.00,Wunderground v.1.15,2013-07-01 04:49:00,
2013-06-30 21:55:00,68.1,60.6,29.91,SW,219,4.0,6.0,77,0.00,,,0.00,Wunderground v.1.15,2013-07-01 04:55:00,
2013-06-30 22:01:00,68.0,60.5,29.92,West,281,4.0,5.0,77,0.00,,,0.00,Wunderground v.1.15,2013-07-01 05:01:00,
2013-06-30 22:06:00,67.7,60.6,29.91,WNW,292,4.0,10.0,78,0.00,,,0.00,Wunderground v.1.15,2013-07-01 05:06:00,
2013-06-30 22:11:00,67.5,60.4,29.91,WSW,256,3.0,5.0,78,0.00,,,0.00,Wunderground v.1.15,2013-07-01 05:11:00,
2013-06-30 22:16:00,67.7,60.6,29.91,WSW,242,3.0,5.0,78,0.00,,,0.00,Wunderground v.1.15,2013-07-01 05:16:00,
2013-06-30 22:22:00,67.7,60.6,29.91,WSW,250,3.0,4.0,78,0.00,,,0.00,Wunderground v.1.15,2013-07-01 05:22:00,
2013-06-30 22:27:00,67.6,60.5,29.91,SSW,196,4.0,6.0,78,0.00,,,0.00,Wunderground v.1.15,2013-07-01 05:27:00,
2013-06-30 22:32:00,67.7,60.6,29.91,West,277,4.0,4.0,78,0.00,,,0.00,Wunderground v.1.15,2013-07-01 05:32:00,
2013-06-30 22:37:00,67.9,60.8,29.91,WSW,252,3.0,4.0,78,0.00,,,0.00,Wunderground v.1.15,2013-07-01 05:37:00,
2013-06-30 22:43:00,68.1,60.6,29.91,WNW,289,3.0,6.0,77,0.00,,,0.00,Wunderground v.1.15,2013-07-01 05:43:00,
2013-06-30 22:49:00,67.9,60.4,29.91,WNW,292,3.0,6.0,77,0.00,,,0.00,Wunderground v.1.15,2013-07-01 05:49:00,
2013-06-30 22:54:00,67.6,60.5,29.92,WNW,296,3.0,4.0,78,0.00,,,0.00,Wunderground v.1.15,2013-07-01 05:54:00,
2013-06-30 22:59:00,67.5,60.4,29.92,WNW,291,3.0,4.0,78,0.00,,,0.00,Wunderground v.1.15,2013-07-01 05:59:00,
2013-06-30 23:05:00,67.5,60.4,29.92,West,259,2.0,12.0,78,0.00,,,0.00,Wunderground v.1.15,2013-07-01 06:05:00,
2013-06-30 23:11:00,67.6,60.5,29.92,West,268,2.0,5.0,78,0.00,,,0.00,Wunderground v.1.15,2013-07-01 06:11:00,
2013-06-30 23:17:00,65.2,58.9,29.92,West,280,4.0,5.0,80,0.00,,,0.00,Wunderground v.1.15,2013-07-01 06:17:00,
2013-06-30 23:23:00,64.1,59.2,29.92,WNW,290,7.0,10.0,84,0.00,,,0.00,Wunderground v.1.15,2013-07-01 06:23:00,
2013-06-30 23:29:00,64.1,59.8,29.92,WNW,295,10.0,14.0,86,0.00,,,0.00,Wunderground v.1.15,2013-07-01 06:29:00,
2013-06-30 23:34:00,64.0,59.7,29.92,WNW,288,10.0,14.0,86,0.00,,,0.00,Wunderground v.1.15,2013-07-01 06:34:00,
2013-06-30 23:40:00,63.7,59.8,29.92,West,267,6.0,6.0,87,0.00,,,0.00,Wunderground v.1.15,2013-07-01 06:40:00,
2013-06-30 23:45:00,64.1,60.2,29.92,WNW,298,4.0,8.0,87,0.00,,,0.00,Wunderground v.1.15,2013-07-01 06:45:00,
2013-06-30 23:50:00,64.4,60.4,29.92,WNW,282,3.0,4.0,87,0.00,,,0.00,Wunderground v.1.15,2013-07-01 06:50:00,
2013-06-30 23:56:00,64.5,60.2,29.92,West,281,2.0,4.0,86,0.00,,,0.00,Wunderground v.1.15,2013-07-01 06:56:00,